This is the latest recevied weather packets stored in our database for station/object AD8IZ-13. If no packets are shown the sender has not sent any weather packets the latest 10 day(s).
| Time | Temp. | Humidity | Pressure | Rain* | Wind** | Luminosity | Snow |
|---|---|---|---|---|---|---|---|
| 1777734918 | 8.33° C | 62% | 1017.3 hPa | 0 mm | - | 507 W/m² | - |
| 1777734318 | 8.33° C | 61% | 1017.3 hPa | 0 mm | - | 817 W/m² | - |
| 1777733718 | 7.78° C | 61% | 1017.3 hPa | 0 mm | - | 763 W/m² | - |
| 1777733120 | 7.78° C | 64% | 1017.4 hPa | 0 mm | - | 741 W/m² | - |
| 1777732519 | 7.22° C | 67% | 1017.4 hPa | 0 mm | - | 744 W/m² | - |
| 1777731920 | 7.22° C | 68% | 1017.5 hPa | 0 mm | - | 605 W/m² | - |
| 1777731321 | 6.67° C | 72% | 1017.6 hPa | 0 mm | - | 556 W/m² | - |
| 1777730719 | 6.11° C | 73% | 1017.6 hPa | 0 mm | - | 98 W/m² | - |
| 1777730116 | 5.56° C | 74% | 1017.6 hPa | 0 mm | - | 63 W/m² | - |
| 1777729517 | 5.56° C | 75% | 1017.6 hPa | 0 mm | - | 58 W/m² | - |
| 1777728919 | 5° C | 78% | 1017.6 hPa | 0 mm | - | 57 W/m² | - |
| 1777728320 | 4.44° C | 78% | 1017.6 hPa | 0 mm | - | 56 W/m² | - |
| 1777727720 | 3.89° C | 80% | 1017.7 hPa | 0 mm | - | 56 W/m² | - |
| 1777727118 | 3.33° C | 83% | 1017.7 hPa | 0 mm | - | 53 W/m² | - |
| 1777726517 | 3.33° C | 85% | 1017.7 hPa | 0 mm | - | 53 W/m² | - |
| 1777725919 | 2.78° C | 90% | 1017.6 hPa | 0 mm | - | 50 W/m² | - |
| 1777725318 | 2.22° C | 94% | 1017.6 hPa | 0 mm | - | 51 W/m² | - |
| 1777724718 | 1.67° C | 98% | 1017.5 hPa | 0 mm | - | 56 W/m² | - |
| 1777724118 | 1.11° C | 99% | 1017.5 hPa | 0 mm | - | 68 W/m² | - |
| 1777722319 | 1.11° C | 99% | 1017.3 hPa | 0 mm | - | 40 W/m² | - |
| 1777721719 | 0° C | 99% | 1017.4 hPa | 0 mm | - | 50 W/m² | - |
| 1777721119 | -1.11° C | 99% | 1017.4 hPa | 0 mm | - | 55 W/m² | - |
| 1777720522 | -1.11° C | 99% | 1017.4 hPa | 0 mm | - | 26 W/m² | - |
| 1777719921 | -1.11° C | 99% | 1017.3 hPa | 0 mm | - | 21 W/m² | - |
| 1777719319 | -1.67° C | 99% | 1017.3 hPa | 0 mm | - | 15 W/m² | - |
* Rain latest hour (hover to see other rain measurements)
** Current wind speed in m/s (hover to see current wind gust speed)